Flag for Germany Past Weather in Landau in der Pfalz, Rhineland-Palatinate, Germany — Yesterday and Last 2 Weeks

Now
68 °F

Scattered showers. Scattered clouds.


Feels Like: 68 °F
Forecast: 59 / 75 °F
Wind: 3 mph from North

Location: Mannheim City

Current Time: Jun 28, 2016 at 1:45:29 PM

Latest Report: Jun 28, 2016 at 12:50 PM


Visibility: N/A

Pressure: 30.07 "Hg

Humidity: 73%

Dew Point: 59 °F

Location of Landau in der PfalzLocation

Past Weather in Landau in der Pfalz — Graph

°F

Landau in der Pfalz Temperature Yesterday

Maximum temperature yesterday: 70 °F (at 3:50 PM)
Minimum temperature yesterday: 55 °F (at 5:50 AM)
Average temperature yesterday: 66 °F

High & Low Weather Summary for the Past Weeks

 TemperatureHumidityPressure
High93 °F (Jun 23, 5:50 PM)100% (Jun 14, 7:50 PM)30.24 "Hg (Jun 14, 7:50 PM)
Low52 °F (Jun 20, 5:20 AM)32% (Jun 23, 7:20 PM)29.53 "Hg (Jun 14, 2:20 PM)
Average68 °F72%29.96 "Hg
* Reported Jun 13 12:20 PM — Jun 28 12:20 PM, Landau in der Pfalz, Weather by CustomWeather, © 2016

Note: Actual official high and low records may vary slightly from our data, if they occured in-between our weather recording intervals... More about our weather records

Advertising

Landau in der Pfalz Weather History for the Previous 24 Hours

Scroll right to see more
 ConditionsComfort  
Time TempWeatherWind HumidityBarometerVisibility
12:20 PM
Tue, Jun 28
68 °FScattered showers. Broken clouds.5 mph78%30.07 "Hg6 mi
11:50 AM64 °FBroken clouds.5 mph88%30.09 "HgN/A
11:20 AM63 °FScattered showers. Broken clouds.9 mph100%30.09 "HgN/A
10:50 AM66 °FScattered showers. Partly sunny.2 mph88%30.09 "HgN/A
10:20 AM63 °FLight rain. Partly sunny.5 mph100%30.09 "HgN/A
9:50 AM63 °FLight rain. Partly sunny.3 mph94%30.09 "Hg4 mi
9:20 AM64 °FScattered showers. Broken clouds.3 mph78%30.09 "HgN/A
8:50 AM66 °FBroken clouds.3 mph73%30.09 "HgN/A
8:20 AM64 °FPartly sunny.3 mph83%30.09 "HgN/A
7:50 AM64 °FBroken clouds.3 mph83%30.09 "HgN/A
7:20 AM64 °FPartly sunny.2 mph83%30.09 "HgN/A
6:50 AM63 °FPartly sunny.2 mph88%30.09 "HgN/A
6:20 AM63 °FPassing clouds.No wind100%30.09 "HgN/A
5:50 AM61 °FClear.2 mph100%30.09 "Hg10 mi
8:50 PM
Mon, Jun 27
68 °FPassing clouds.8 mph64%30.12 "HgN/A
8:20 PM68 °FPassing clouds.6 mph64%30.12 "HgN/A
7:50 PM70 °FPartly sunny.8 mph60%30.12 "HgN/A
7:20 PM70 °FPartly sunny.9 mph60%30.12 "HgN/A
6:50 PM70 °FPartly sunny.9 mph60%30.12 "HgN/A
6:20 PM70 °FPartly sunny.8 mph57%30.12 "HgN/A
5:50 PM70 °FPartly sunny.8 mph60%30.12 "HgN/A
5:20 PM70 °FPartly sunny.8 mph57%30.12 "HgN/A
4:50 PM70 °FOvercast.8 mph57%30.12 "HgN/A
4:20 PM70 °FPartly sunny.8 mph57%30.12 "HgN/A
3:50 PM70 °FBroken clouds.7 mph60%30.12 "HgN/A
3:20 PM68 °FBroken clouds.8 mph60%30.15 "HgN/A
2:50 PM66 °FBroken clouds.9 mph60%30.15 "HgN/A
2:20 PM68 °FPartly sunny.8 mph56%30.15 "HgN/A
1:50 PM66 °FPartly sunny.9 mph60%30.15 "HgN/A
1:20 PM68 °FBroken clouds.10 mph53%30.15 "HgN/A
Weather by CustomWeather, © 2016

See weather overviewHow to use our weather pages